Weather History for Whiting Fld NAS, FL

Change the Weather History Date:

Monday, January 28, 2013

  Actual Average Record
Temperature  
Mean Temperature 65 °F -  
Max Temperature 75 °F 59 °F 75 °F (2013)
Min Temperature 55 °F 42 °F 24 °F (2014)
Growing Degree Days 15 (Base 50)    
Moisture  
Dew Point 57 °F    
Average Humidity 80    
Maximum Humidity 93    
Minimum Humidity 57    
Precipitation  
Precipitation 0.00 in - - ()
Sea Level Pressure  
Sea Level Pressure 30.24 in    
Wind  
Wind Speed 6 mph (ESE)    
Max Wind Speed 12 mph    
Max Gust Speed -    
Visibility 5 miles    
Events Rain    
Averages and records for this station are not official NWS values.
T = Trace of Precipitation, MM = Missing Value Source: NWS Daily Summary

Daily Weather History Graph

Daily Weather History Graph

Search for Another Location

Airport:

Trip Planner

Search our weather history database for the weather conditions in past years. The results will help you decide how hot, cold, wet, or windy it might be!

Date:

Astronomy

Jan. 28, 2013 Rise Set
Actual Time 6:41 AM CST 5:20 PM CST
Civil Twilight 6:16 AM CST 5:46 PM CST
Nautical Twilight 5:47 AM CST 6:15 PM CST
Astronomical Twilight 5:18 AM CST 6:43 PM CST
Moon 7:03 PM CST (1/28) 7:16 AM CST (1/28)
Length of Visible Light 11h 30m
Length of Day
10h 39m
Full, 98% of the Moon is Illuminated
Jan 28
Full
Feb 3
Last Quarter
Feb 10
New
Feb 17
First Quarter
Feb 25
Full

Hourly Weather History & Observations

Time (CST) Temp. Dew Point Humidity Pressure Visibility Wind Dir Wind Speed Gust Speed Precip Events Conditions
12:25 AM 55.4 °F 48.2 °F 77% 30.28 in 4.0 mi East 4.6 mph - N/A   Haze
12:47 AM 59.0 °F 53.6 °F 82% 30.27 in 5.0 mi East 6.9 mph - 0.00 in Rain Light Rain
12:56 AM 57.9 °F 54.0 °F 87% 30.24 in 5.0 mi East 4.6 mph - 0.00 in   Mostly Cloudy
1:35 AM 59.0 °F 53.6 °F 82% 30.28 in 5.0 mi ENE 3.5 mph - N/A   Haze
1:56 AM 59.0 °F 54.0 °F 83% 30.24 in 5.0 mi ENE 4.6 mph - N/A   Haze
2:33 AM 59.0 °F 55.4 °F 88% 30.28 in 4.0 mi East 5.8 mph - N/A   Overcast
2:47 AM 59.0 °F 53.6 °F 82% 30.27 in 3.0 mi East 4.6 mph - N/A   Haze
2:56 AM 59.0 °F 54.0 °F 83% 30.24 in 3.0 mi East 4.6 mph - N/A   Haze
3:03 AM 57.2 °F 53.6 °F 88% 30.27 in 2.5 mi East 5.8 mph - N/A   Mostly Cloudy
3:25 AM 57.2 °F 53.6 °F 88% 30.27 in 3.0 mi ESE 6.9 mph - N/A   Mostly Cloudy
3:56 AM 57.9 °F 54.0 °F 87% 30.22 in 2.5 mi East 8.1 mph - N/A   Mostly Cloudy
4:12 AM 57.2 °F 53.6 °F 88% 30.26 in 3.0 mi East 6.9 mph - N/A   Scattered Clouds
4:30 AM 57.2 °F 53.6 °F 88% 30.26 in 2.5 mi East 6.9 mph - N/A   Clear
4:56 AM 57.9 °F 54.0 °F 87% 30.23 in 2.5 mi East 6.9 mph - N/A   Clear
5:15 AM 57.2 °F 53.6 °F 88% 30.27 in 2.0 mi East 6.9 mph - N/A   Mostly Cloudy
5:25 AM 57.2 °F 53.6 °F 88% 30.27 in 2.0 mi East 5.8 mph - N/A   Mostly Cloudy
5:30 AM 57.2 °F 53.6 °F 88% 30.27 in 1.8 mi East 5.8 mph - N/A   Overcast
5:37 AM 57.2 °F 53.6 °F 88% 30.28 in 2.0 mi ESE 6.9 mph - N/A   Overcast
5:52 AM 57.2 °F 53.6 °F 88% 30.28 in 3.0 mi ESE 8.1 mph - N/A   Scattered Clouds
5:56 AM 57.9 °F 54.0 °F 87% 30.24 in 2.0 mi East 8.1 mph - N/A   Mostly Cloudy
6:56 AM 57.9 °F 55.9 °F 93% 30.25 in 1.5 mi East 8.1 mph - N/A   Mostly Cloudy
7:21 AM 59.0 °F 55.4 °F 88% 30.30 in 2.0 mi East 6.9 mph - N/A   Mostly Cloudy
7:56 AM 60.1 °F 55.9 °F 86% 30.26 in 3.0 mi East 8.1 mph - N/A   Mostly Cloudy
8:29 AM 62.6 °F 57.2 °F 82% 30.31 in 5.0 mi East 5.8 mph - N/A   Mostly Cloudy
8:56 AM 62.1 °F 57.9 °F 86% 30.27 in 6.0 mi ESE 6.9 mph - N/A   Mostly Cloudy
9:11 AM 62.6 °F 57.2 °F 82% 30.32 in 6.0 mi ESE 5.8 mph - N/A   Mostly Cloudy
9:56 AM 63.0 °F 59.0 °F 87% 30.28 in 7.0 mi ESE 9.2 mph - N/A   Mostly Cloudy
10:19 AM 69.8 °F 57.2 °F 64% 30.32 in 8.0 mi SE 9.2 mph - N/A   Mostly Cloudy
10:56 AM 70.0 °F 57.9 °F 65% 30.27 in 8.0 mi ESE 6.9 mph - N/A   Mostly Cloudy
11:56 AM 73.0 °F 57.9 °F 59% 30.25 in 9.0 mi South 11.5 mph - N/A   Mostly Cloudy
12:56 PM 73.9 °F 59.0 °F 59% 30.21 in 8.0 mi SE 11.5 mph - N/A   Mostly Cloudy
1:56 PM 73.9 °F 59.0 °F 59% 30.20 in 9.0 mi SSE 8.1 mph - N/A   Mostly Cloudy
2:56 PM 75.0 °F 59.0 °F 57% 30.19 in 9.0 mi SE 8.1 mph - N/A   Mostly Cloudy
3:56 PM 73.9 °F 60.1 °F 62% 30.19 in 9.0 mi ESE 6.9 mph - N/A   Mostly Cloudy
4:56 PM 70.0 °F 60.1 °F 71% 30.19 in 8.0 mi ESE 4.6 mph - N/A   Mostly Cloudy
5:56 PM 69.1 °F 60.1 °F 73% 30.19 in 9.0 mi SE 6.9 mph - N/A   Mostly Cloudy
6:35 PM 68.0 °F 60.8 °F 78% 30.22 in 9.0 mi ESE 5.8 mph - N/A   Mostly Cloudy
6:56 PM 68.0 °F 60.1 °F 76% 30.19 in 9.0 mi SE 8.1 mph - N/A   Mostly Cloudy
7:37 PM 66.2 °F 60.8 °F 83% 30.22 in 8.0 mi SE 9.2 mph - N/A   Overcast
7:56 PM 66.9 °F 60.1 °F 79% 30.19 in 7.0 mi SE 9.2 mph - N/A   Overcast
8:56 PM 66.9 °F 61.0 °F 81% 30.18 in 7.0 mi SSE 11.5 mph - N/A   Overcast
9:56 PM 66.9 °F 61.0 °F 81% 30.17 in 7.0 mi SE 6.9 mph - N/A   Overcast
10:56 PM 66.9 °F 62.1 °F 84% 30.15 in 7.0 mi ESE 6.9 mph - N/A   Overcast
11:56 PM 66.9 °F 62.1 °F 84% 30.14 in 6.0 mi SSE 8.1 mph - N/A   Haze